Vancouver, WA

5:00 AM PDT on September 25, 2017 (GMT -0700)
Pearson

Weather History for KVUO - October, 2012

Change the Weather History Date:

Monday, October 22, 2012

  Actual Average Record
Temperature  
Mean Temperature 58 °F 52 °F  
Max Temperature 71 °F 61 °F 80 °F (1929)
Min Temperature 45 °F 43 °F 25 °F (1980)
Degree Days  
Heating Degree Days 8    
Month to date heating degree days 158  
Since 1 July heating degree days 241  
Cooling Degree Days 0    
Month to date cooling degree days 0  
Year to date cooling degree days 398  
Growing Degree Days 8 (Base 50)    
Moisture  
Dew Point 42 °F    
Average Humidity 60    
Maximum Humidity 83    
Minimum Humidity 37    
Precipitation  
Precipitation 0.21 in 0.11 in 1.70 in (2014)
Month to date precipitation 2.30 2.06  
Year to date precipitation 29.03 25.45  
Snow  
Snow 0.00 in - - ()
Month to date snowfall 0.0  
Snow Depth 0.00 in    
Sea Level Pressure  
Sea Level Pressure 29.62 in    
Wind  
Wind Speed 4 mph (SE)    
Max Wind Speed 13 mph    
Max Gust Speed 20 mph    
Visibility 9 miles    
Events Rain    
T = Trace of Precipitation, MM = Missing Value Source: NWS Daily Summary

Daily Weather History Graph

Daily Weather History Graph

Search for Another Location

Airport or City:

Trip Planner

Search our weather history database for the weather conditions in past years. The results will help you decide how hot, cold, wet, or windy it might be!

Date:

Astronomy

Oct. 22, 2012 Rise Set
Actual Time 7:37 AM PDT 6:11 PM PDT
Civil Twilight 7:06 AM PDT 6:42 PM PDT
Nautical Twilight 6:32 AM PDT 7:16 PM PDT
Astronomical Twilight 5:57 AM PDT 7:51 PM PDT
Moon 2:41 PM PDT (10/22) 12:09 AM PDT (10/22)
Length of Visible Light 11h 35m
Length of Day
10h 34m
First Quarter, 57% of the Moon is Illuminated
Oct 22
First Quarter
Oct 29
Full
Nov 6
Last Quarter
Nov 13
New
Nov 20
First Quarter

Hourly Weather History & Observations

Time (PDT) Temp. Dew Point Humidity Pressure Visibility Wind Dir Wind Speed Gust Speed Precip Events Conditions
12:53 AM 62.1 °F 43.0 °F 50% 29.73 in 10.0 mi Calm Calm - N/A   Overcast
1:53 AM 51.1 °F 41.0 °F 68% 29.69 in 10.0 mi Calm Calm - N/A   Clear
2:53 AM 45.0 °F 39.0 °F 80% 29.67 in 10.0 mi Calm Calm - N/A   Partly Cloudy
3:53 AM 46.9 °F 39.9 °F 77% 29.64 in 10.0 mi Calm Calm - N/A   Overcast
4:53 AM 48.9 °F 42.1 °F 77% 29.62 in 10.0 mi Calm Calm - 0.00 in Rain Light Rain
5:53 AM 48.0 °F 43.0 °F 83% 29.60 in 10.0 mi Calm Calm - 0.02 in Rain Light Rain
6:53 AM 54.0 °F 43.0 °F 66% 29.58 in 10.0 mi Calm Calm - 0.02 in Rain Light Rain
7:53 AM 57.0 °F 43.0 °F 59% 29.58 in 6.0 mi Calm Calm - 0.02 in Rain Light Rain
8:16 AM 53.6 °F 44.6 °F 72% 29.58 in 8.0 mi Calm Calm - 0.02 in Rain Light Rain
8:53 AM 52.0 °F 43.0 °F 71% 29.58 in 6.0 mi Calm Calm - 0.05 in Rain Light Rain
9:04 AM 57.2 °F 44.6 °F 63% 29.58 in 6.0 mi ESE 4.6 mph - 0.01 in Rain Light Rain
9:39 AM 66.2 °F 42.8 °F 43% 29.58 in 10.0 mi SE 4.6 mph - 0.01 in Rain Light Rain
9:49 AM 66.2 °F 42.8 °F 43% 29.58 in 9.0 mi SE 6.9 mph - 0.01 in Rain Light Rain
9:50 AM 66.9 °F 43.0 °F 42% 29.59 in 9.0 mi SE 8.1 mph - 0.02 in Rain Light Rain
10:35 AM - - N/A% 29.59 in 6.0 mi SE 8.1 mph - 0.01 in Rain Light Rain
10:49 AM - - N/A% 29.59 in 7.0 mi SE 5.8 mph - 0.01 in Rain Light Rain
10:53 AM - - N/A% 29.60 in 7.0 mi ESE 6.9 mph - 0.01 in Rain Light Rain
11:20 AM - - N/A% 29.59 in 6.0 mi ESE 8.1 mph - 0.00 in Rain Light Rain
11:53 AM - - N/A% 29.60 in 5.0 mi ESE 8.1 mph - 0.00 in Rain Light Rain
12:08 PM - - N/A% 29.59 in 10.0 mi ESE 9.2 mph - 0.00 in Rain Light Rain
12:40 PM - - N/A% 29.59 in 10.0 mi East 9.2 mph - 0.00 in Rain Light Rain
12:53 PM - - N/A% 29.60 in 10.0 mi East 6.9 mph - 0.00 in Rain Light Rain
1:39 PM 59.0 °F 42.8 °F 55% 29.59 in 10.0 mi SE 5.8 mph - 0.02 in Rain Light Rain
1:53 PM 62.1 °F 43.0 °F 50% 29.60 in 10.0 mi SSE 4.6 mph - 0.02 in   Overcast
2:53 PM 66.0 °F 42.1 °F 42% 29.60 in 10.0 mi SSW 9.2 mph 16.1 mph N/A   Mostly Cloudy
3:53 PM 70.0 °F 43.0 °F 38% 29.61 in 10.0 mi South 10.4 mph 16.1 mph N/A   Mostly Cloudy
4:53 PM 64.9 °F 41.0 °F 42% 29.63 in 10.0 mi South 8.1 mph - 0.00 in Rain Light Rain
6:53 PM 63.0 °F 41.0 °F 45% 29.66 in 10.0 mi Variable 6.9 mph - N/A   Scattered Clouds
7:53 PM 61.0 °F 41.0 °F 48% 29.68 in 10.0 mi Variable 6.9 mph - 0.00 in   Mostly Cloudy
8:53 PM 64.0 °F 41.0 °F 43% 29.69 in 10.0 mi SSE 5.8 mph - N/A   Overcast
9:53 PM 60.1 °F 39.9 °F 47% 29.70 in 10.0 mi South 3.5 mph - 0.00 in   Overcast
10:11 PM 62.6 °F 39.2 °F 42% 29.70 in 10.0 mi South 4.6 mph - N/A   Overcast
10:53 PM 62.1 °F 39.0 °F 43% 29.70 in 10.0 mi South 8.1 mph - N/A   Partly Cloudy
11:53 PM 59.0 °F 39.0 °F 48% 29.72 in 10.0 mi Variable 4.6 mph - N/A   Clear